Wheeling, WV

2:08 AM EST on December 12, 2017 (GMT -0500)
Wheeling-Ohio County

Weather History for KHLG - November, 2011

Change the Weather History Date:

Wednesday, November 2, 2011

  Actual Average Record
Temperature  
Mean Temperature 51 °F 48 °F  
Max Temperature 64 °F 56 °F 81 °F (2016)
Min Temperature 37 °F 39 °F 16 °F (1930)
Degree Days  
Heating Degree Days 14 17  
Month to date heating degree days 34 34  
Since 1 July heating degree days 303 508  
Cooling Degree Days 0    
Month to date cooling degree days 0  
Year to date cooling degree days 0  
Moisture  
Dew Point 31 °F    
Average Humidity 55    
Maximum Humidity 82    
Minimum Humidity 28    
Precipitation  
Precipitation 0.00 in 0.11 in 1.82 in (1999)
Month to date precipitation 0.00 0.22  
Year to date precipitation 32.54  
Sea Level Pressure  
Sea Level Pressure 30.28 in    
Wind  
Wind Speed 6 mph (South)    
Max Wind Speed 13 mph    
Max Gust Speed 15 mph    
Visibility 10 miles    
Events      
T = Trace of Precipitation, MM = Missing Value Source: NWS Daily Summary

Daily Weather History Graph

Daily Weather History Graph

Search for Another Location

Airport or City:

Trip Planner

Search our weather history database for the weather conditions in past years. The results will help you decide how hot, cold, wet, or windy it might be!

Date:

Astronomy

Nov. 02, 2011 Rise Set
Actual Time 7:52 AM EDT 6:18 PM EDT
Civil Twilight 7:24 AM EDT 6:47 PM EDT
Nautical Twilight 6:52 AM EDT 7:19 PM EDT
Astronomical Twilight 6:20 AM EDT 7:50 PM EDT
Moon 2:11 PM EDT (11/2) 12:00 AM EDT (11/2)
Length of Visible Light 11h 22m
Length of Day
10h 26m
Waxing Crescent, 50% of the Moon is Illuminated
Nov 2
Waxing Crescent
Nov 2
First Quarter
Nov 10
Full
Nov 18
Last Quarter
Nov 25
New

Hourly Weather History & Observations

Time (EDT) Temp. Windchill Dew Point Humidity Pressure Visibility Wind Dir Wind Speed Gust Speed Precip Events Conditions
12:53 AM 46.9 °F - 30.9 °F 54% 30.30 in 10.0 mi South 3.5 mph - N/A   Clear
1:53 AM 45.0 °F - 30.9 °F 58% 30.30 in 10.0 mi Calm Calm - N/A   Clear
2:53 AM 45.0 °F 42.6 °F 30.9 °F 58% 30.30 in 10.0 mi SSE 4.6 mph - N/A   Clear
3:53 AM 44.1 °F 41.5 °F 30.9 °F 60% 30.30 in 10.0 mi South 4.6 mph - N/A   Clear
4:53 AM 44.1 °F 41.5 °F 30.9 °F 60% 30.30 in 10.0 mi SSE 4.6 mph - N/A   Clear
5:53 AM 42.1 °F 38.4 °F 30.9 °F 65% 30.32 in 10.0 mi South 5.8 mph - N/A   Clear
6:53 AM 42.1 °F 38.4 °F 30.9 °F 65% 30.34 in 10.0 mi South 5.8 mph - N/A   Clear
7:53 AM 43.0 °F 41.3 °F 30.0 °F 60% 30.34 in 10.0 mi South 3.5 mph - N/A   Clear
8:53 AM 37.0 °F - 32.0 °F 82% 30.37 in 6.0 mi Calm Calm - N/A   Haze
9:53 AM 46.9 °F - 35.1 °F 63% 30.36 in 10.0 mi South 5.8 mph - N/A   Clear
10:53 AM 53.1 °F - 34.0 °F 48% 30.35 in 10.0 mi South 6.9 mph - N/A   Clear
11:53 AM 57.0 °F - 34.0 °F 42% 30.34 in 10.0 mi South 6.9 mph - N/A   Clear
1:53 PM 62.1 °F - 30.9 °F 31% 30.27 in 10.0 mi SSW 6.9 mph - N/A   Clear
2:53 PM 64.0 °F - 30.0 °F 28% 30.25 in 10.0 mi SSW 9.2 mph - N/A   Clear
4:53 PM 63.0 °F - 30.9 °F 30% 30.21 in 10.0 mi SW 8.1 mph - N/A   Clear
5:53 PM 61.0 °F - 28.9 °F 30% 30.21 in 10.0 mi SSW 6.9 mph - N/A   Clear
6:53 PM 57.9 °F - 30.0 °F 35% 30.21 in 10.0 mi South 6.9 mph - N/A   Clear
7:53 PM 57.0 °F - 30.0 °F 36% 30.20 in 10.0 mi South 8.1 mph - N/A   Clear
8:53 PM 55.0 °F - 30.0 °F 38% 30.20 in 10.0 mi South 6.9 mph - N/A   Clear
9:53 PM 55.0 °F - 28.9 °F 37% 30.17 in 10.0 mi SSE 6.9 mph - N/A   Clear
11:53 PM 55.0 °F - 28.9 °F 37% 30.15 in 10.0 mi Calm Calm - N/A   Clear